Lapse_Rate
6.8 6.9 6.9 6.9 7.0 7.0 7.0 7.0 7.0 7.1 6.9 6.7 6.8 6.6 6.7 6.6 6.4 6.2 6.0 5.9 5.8 5.7 5.7 5.9 6.5 6.6 6.7 6.9 7.0 6.8 6.8 6.9 7.0 6.9 6.9 6.8 6.9 6.9 6.9 6.8 6.8 6.7 6.5
6.7 6.7 6.7 6.8 6.9 6.9 7.0 7.0 7.0 6.9 6.7 6.7 6.6 6.6 6.6 6.4 6.2 6.0 5.9 5.8 5.7 5.5 5.7 6.3 6.6 6.4 6.6 6.9 6.7 6.7 6.7 6.8 6.7 6.6 6.7 6.7 6.6 6.5 6.1 6.8 6.8 6.6 6.2
6.5 6.5 6.6 6.8 6.8 6.9 6.9 6.9 6.9 6.8 6.6 6.5 6.4 6.5 6.4 6.2 6.0 5.8 5.7 5.7 5.5 5.5 5.8 6.5 6.5 6.5 6.5 6.8 6.8 6.8 6.7 6.7 6.6 6.6 6.7 6.8 6.7 6.6 6.5 6.5 6.5 6.1 6.1
6.3 6.3 6.5 6.6 6.6 6.7 6.8 6.8 6.7 6.6 6.5 6.4 6.4 6.3 6.1 5.9 5.8 5.7 5.6 5.5 5.5 5.7 6.2 6.5 6.5 6.6 6.7 6.9 6.9 6.8 6.8 6.9 6.8 6.7 6.8 6.7 6.7 6.6 6.5 6.2 5.7 6.0 6.0
6.1 6.2 6.3 6.4 6.5 6.7 6.7 6.7 6.6 6.5 6.4 6.3 6.2 6.1 6.0 5.9 5.7 5.6 5.5 5.4 5.5 6.0 6.3 6.3 6.4 6.6 6.7 6.9 6.7 6.8 6.7 6.8 6.9 6.9 6.9 6.7 6.7 6.7 6.6 6.3 5.6 5.7 5.9
5.9 6.0 6.2 6.3 6.4 6.6 6.6 6.6 6.5 6.4 6.3 6.2 6.2 6.0 5.9 5.9 5.7 5.6 5.5 5.5 5.8 6.1 6.3 6.4 6.6 6.7 6.8 7.1 6.9 7.0 6.9 6.8 6.8 6.8 6.9 6.8 6.7 6.7 6.6 6.4 6.3 6.3 6.0
5.8 5.9 6.0 6.2 6.3 6.4 6.4 6.5 6.4 6.3 6.2 6.3 6.1 6.1 6.1 5.8 5.7 5.7 5.6 5.6 5.9 6.1 6.1 6.1 6.4 6.9 6.8 7.0 7.1 7.0 7.0 6.9 6.8 6.7 6.8 6.8 6.8 6.8 6.8 6.6 6.4 6.3 6.1
5.6 5.8 5.9 6.1 6.3 6.3 6.4 6.3 6.2 6.2 6.2 6.2 6.1 6.1 6.1 6.1 6.0 5.8 5.8 5.9 6.0 6.0 6.1 6.2 6.4 6.5 6.7 6.9 7.0 7.1 7.1 7.1 7.0 7.0 6.8 6.9 6.9 6.8 6.8 6.7 6.6 6.5 6.4
5.6 5.7 5.8 6.0 6.1 6.2 6.3 6.2 6.1 6.2 6.3 6.2 6.1 6.0 6.1 6.0 6.1 5.8 5.7 5.9 5.9 6.0 6.1 6.2 6.2 6.4 6.6 6.7 6.9 7.1 7.0 7.0 7.0 7.1 7.0 7.0 7.0 7.0 6.9 6.8 6.7 6.7 6.6
5.7 5.6 5.7 5.9 6.0 6.1 6.1 6.1 6.2 6.3 6.2 6.2 6.1 6.0 5.9 5.9 5.8 5.8 6.1 6.0 5.8 5.9 5.9 6.1 6.1 6.2 6.3 6.5 6.6 7.0 7.0 7.0 6.9 6.9 6.9 7.0 7.0 7.0 7.0 7.0 6.9 6.7 6.6
5.7 5.7 5.8 6.0 6.0 6.0 6.0 6.1 6.3 6.3 6.2 6.1 6.0 6.0 6.0 5.9 5.8 5.8 5.8 5.9 5.9 5.9 5.8 6.0 5.9 5.9 6.1 6.2 6.2 6.4 6.8 7.0 7.0 6.9 6.8 6.8 6.8 6.9 7.0 7.0 7.0 7.0 6.9
5.8 5.8 5.9 6.0 6.1 6.0 6.0 6.2 6.3 6.3 6.2 6.1 6.0 6.0 6.0 6.0 6.0 6.0 6.1 5.9 5.8 5.6 5.8 5.9 5.9 6.1 6.0 6.2 6.2 6.2 6.3 6.6 6.9 7.0 7.0 6.9 6.8 6.7 6.8 6.9 7.0 7.1 7.0
5.9 5.8 6.0 6.1 6.0 6.0 6.1 6.2 6.3 6.2 6.1 6.1 6.0 6.0 6.0 5.9 6.0 6.1 6.2 6.0 5.8 5.6 5.8 5.8 5.9 6.0 6.1 6.1 6.1 6.2 6.3 6.2 6.3 6.6 6.8 6.9 6.9 6.9 6.8 6.8 6.8 6.9 7.0
5.9 5.9 6.0 6.0 6.0 6.0 6.1 6.2 6.3 6.2 6.2 6.1 6.2 6.2 6.1 6.1 6.1 6.0 6.0 6.1 5.7 5.8 5.8 5.7 5.7 5.6 5.7 6.0 6.1 6.1 6.1 6.1 6.2 6.3 6.5 6.7 6.8 6.8 7.0 6.9 6.9 6.9 6.9
5.9 6.0 5.9 6.0 6.0 6.0 6.1 6.2 6.3 6.2 6.2 6.2 6.1 6.0 5.9 5.9 6.0 6.1 5.9 6.0 6.1 6.1 5.6 5.6 5.6 5.7 5.7 5.7 5.8 6.0 6.1 6.1 6.2 6.2 6.3 6.5 6.6 6.8 6.7 6.8 6.9 7.0 7.0
5.9 5.9 5.9 5.9 5.9 6.0 6.1 6.2 6.2 6.1 6.1 6.0 5.9 5.9 5.9 5.9 5.8 5.9 5.8 5.7 5.7 5.9 6.0 5.5 5.3 5.7 5.6 5.8 5.9 6.0 6.0 6.0 5.9 6.0 6.0 6.2 6.4 6.5 6.7 6.8 6.8 6.8 7.0
5.9 5.8 5.8 5.8 5.8 5.9 5.9 5.9 6.0 6.0 6.0 5.9 5.9 5.8 5.8 5.7 5.7 5.6 5.6 5.6 5.6 5.7 5.8 5.8 5.6 5.5 5.6 5.7 5.9 6.0 6.2 6.3 6.2 6.1 6.1 6.1 6.1 6.3 6.5 6.6 6.7 6.8 6.8
5.8 5.8 5.6 5.7 5.7 5.7 5.7 5.8 5.8 5.8 5.7 5.6 5.6 5.6 5.6 5.6 5.7 5.5 5.4 5.4 5.5 5.5 5.6 5.8 5.8 5.7 5.6 5.6 5.7 5.9 5.9 6.2 6.3 6.1 6.1 6.0 6.1 6.1 6.1 6.2 6.5 6.6 6.8
5.9 5.7 5.6 5.6 5.5 5.5 5.5 5.7 5.8 5.8 5.7 5.6 5.5 5.5 5.4 5.4 5.4 5.3 5.4 5.5 5.5 5.5 5.5 5.5 5.6 5.7 5.7 5.7 5.6 5.4 5.7 5.9 6.1 6.2 6.0 6.0 5.9 6.0 6.1 6.1 6.1 6.2 6.4
5.8 5.6 5.4 5.3 5.3 5.4 5.5 5.6 5.7 5.5 5.4 5.3 5.3 5.3 5.4 5.3 5.2 5.3 5.4 5.4 5.4 5.4 5.4 5.4 5.5 5.6 5.6 5.5 5.5 5.7 5.5 5.3 5.6 5.8 5.9 5.8 5.7 5.7 5.7 5.8 6.1 6.1 6.1
5.6 5.4 5.2 5.2 5.2 5.3 5.4 5.5 5.5 5.3 5.3 5.2 5.2 5.2 5.2 5.2 5.3 5.3 5.3 5.4 5.3 5.3 5.4 5.4 5.3 5.3 5.2 5.3 5.3 5.4 5.3 5.5 5.5 5.5 5.6 5.7 5.5 5.4 5.3 5.5 5.6 6.0 6.0
5.4 5.3 5.2 5.2 5.3 5.3 5.3 5.3 5.3 5.3 5.2 5.2 5.2 5.1 5.1 5.2 5.2 5.4 5.2 5.2 5.2 5.3 5.3 5.2 5.1 5.2 5.1 5.0 5.0 5.1 5.4 5.5 5.7 5.5 5.6 5.6 5.5 5.4 5.5 5.3 5.4 5.4 5.7
5.3 5.3 5.1 5.1 5.1 5.1 5.2 5.2 5.2 5.1 5.0 4.9 4.9 4.9 5.0 5.2 5.3 5.2 5.3 5.3 5.4 5.3 5.2 5.2 5.2 5.1 5.0 4.9 5.0 5.1 5.1 5.0 4.9 5.0 5.2 5.5 5.5 5.5 5.3 5.2 4.9 5.0 5.1
5.2 5.0 4.9 4.9 5.0 5.0 5.1 5.1 4.9 4.8 4.7 4.8 4.8 4.9 5.0 5.1 5.2 5.3 5.4 5.4 5.4 5.3 5.1 5.0 4.9 4.9 4.9 4.9 5.0 5.0 5.0 5.1 5.0 4.9 4.7 4.9 5.1 5.3 5.2 5.1 4.9 4.9 4.9
5.0 4.9 4.9 4.9 4.9 5.0 4.9 4.8 4.7 4.6 4.6 4.6 4.8 4.9 5.1 5.2 5.3 5.3 5.3 5.2 5.1 5.0 4.9 4.9 4.9 4.9 4.8 4.7 4.7 4.8 4.8 4.8 4.8 5.1 5.1 5.0 5.0 5.2 5.3 5.4 5.3 5.0 4.7
5.0 4.9 4.9 4.9 4.9 4.8 4.8 4.7 4.7 4.8 4.8 4.9 5.1 5.2 5.1 4.9 5.0 5.1 5.0 4.9 4.9 5.0 5.0 5.0 5.0 5.0 4.9 5.0 4.9 4.8 4.8 4.8 4.8 4.8 4.7 4.9 5.0 4.9 5.2 5.6 5.7 5.5 5.3
Wind_Speed
5 5 7 8 8 10 8 8 8 8 8 10 9 8 10 11 12 10 12 15 14 16 18 19 23 17 17 18 19 19 19 18 19 17 16 18 16 13 12 13 13 12 12
6 6 7 7 8 9 10 8 8 6 5 6 6 9 8 8 10 12 7 12 13 15 17 19 20 21 19 19 19 19 19 17 16 17 16 18 16 16 15 14 15 14 13
5 4 4 6 6 8 9 10 10 10 6 7 4 4 8 10 9 10 12 8 10 14 15 16 17 18 18 17 17 18 19 17 17 17 17 16 17 17 18 18 20 19 16
3 4 4 4 5 6 6 5 3 4 4 4 3 3 3 6 7 10 10 10 9 6 13 13 14 16 17 16 15 15 16 17 16 17 17 19 18 18 16 16 20 19 20
3 5 4 4 5 3 3 3 3 2 3 3 3 2 2 3 5 8 6 9 9 9 8 9 11 12 14 15 15 15 17 18 19 20 18 16 17 18 18 19 20 19 21
3 1 1 2 2 3 3 3 3 2 2 2 4 1 3 2 3 3 5 4 5 7 7 4 6 10 11 14 14 16 17 18 19 19 18 16 16 18 17 20 21 23 23
3 2 1 1 2 2 1 2 2 3 3 4 2 3 1 4 2 1 3 4 5 4 3 6 6 8 5 12 13 16 18 20 20 20 18 15 14 18 19 19 21 22 22
3 1 1 1 2 2 3 3 4 3 2 3 1 1 2 2 2 2 2 1 2 3 4 4 3 5 7 10 11 14 16 19 19 19 18 15 17 19 18 18 18 20 20
5 1 1 1 2 2 1 1 2 2 1 2 3 2 3 1 2 1 2 1 2 1 3 6 5 5 7 6 9 11 14 16 17 18 18 15 18 18 18 19 18 20 20
6 5 2 1 1 1 0 1 2 1 1 2 2 3 1 2 1 3 2 1 2 1 1 1 5 6 6 10 6 10 12 16 16 16 16 17 16 16 18 17 18 19 20
6 7 3 3 2 1 1 2 1 1 1 1 1 1 2 1 1 1 3 4 4 3 1 2 5 6 4 3 2 6 12 14 15 17 17 16 17 16 16 17 18 18 20
4 6 4 3 3 2 1 1 2 1 1 2 1 1 1 1 1 2 2 3 3 3 3 1 3 4 5 4 1 5 15 14 10 14 18 18 16 15 15 16 17 18 18
3 5 5 3 2 3 1 1 0 0 0 1 1 1 2 1 1 1 1 2 2 3 3 3 4 11 10 5 3 11 13 15 9 13 18 15 15 17 16 16 16 17 17
4 7 5 4 3 3 3 2 1 2 1 2 2 1 0 1 1 1 1 2 3 2 2 3 3 11 12 9 10 14 15 16 7 15 13 13 13 15 16 17 17 16 16
4 6 5 3 4 3 2 1 1 2 2 2 1 0 1 1 1 1 2 2 1 3 3 3 4 10 15 15 15 14 15 16 18 18 11 10 13 16 16 15 16 16 16
5 5 5 4 4 4 3 2 2 2 2 1 2 2 1 1 1 1 1 1 1 2 2 1 4 4 13 15 16 17 15 17 19 15 8 9 14 17 17 16 16 15 15
6 6 6 5 5 4 3 3 3 4 1 3 2 2 1 2 2 2 1 0 2 1 2 3 4 7 6 7 13 16 15 14 16 19 8 11 14 16 17 17 16 16 15
6 6 6 5 6 5 4 4 4 4 4 4 4 3 3 3 2 2 3 3 2 3 2 5 5 3 3 7 9 9 15 17 17 21 22 17 12 16 16 15 15 14 14
7 6 6 6 6 5 5 4 5 4 4 5 5 5 4 5 4 3 3 3 2 2 1 2 3 2 2 5 6 6 8 11 16 20 19 17 21 22 23 20 16 15 14
7 7 6 6 6 5 5 4 5 5 5 5 5 6 5 5 5 4 4 5 4 3 3 3 3 3 4 3 2 4 7 6 7 16 11 19 22 23 24 22 16 19 14
7 7 7 6 6 5 3 5 5 5 6 6 5 6 5 6 7 5 3 4 4 3 3 3 2 2 3 3 4 3 5 7 6 2 4 8 13 14 17 18 19 15 13
7 7 7 7 6 5 8 7 6 5 5 6 6 6 5 6 4 4 4 3 3 2 2 2 2 3 3 2 3 3 3 6 6 5 9 10 10 4 11 15 20 22 13
7 7 7 7 7 6 10 8 5 5 5 5 5 5 4 3 5 3 5 5 3 4 4 2 1 2 3 2 4 5 3 3 5 8 5 8 2 5 14 14 22 23 11
7 6 6 7 7 5 10 9 6 5 5 5 5 5 4 5 4 3 3 3 3 2 1 1 2 4 4 6 3 3 3 4 4 5 4 4 3 5 6 13 22 19 8
5 6 6 7 7 6 10 10 7 5 5 5 4 4 4 4 4 3 2 2 3 3 4 7 9 10 10 8 9 2 4 3 4 4 3 2 3 5 4 6 12 7 14
7 6 6 7 9 7 11 11 7 4 5 4 4 5 7 5 4 3 0 2 2 3 3 5 5 9 9 10 11 5 3 2 2 3 3 4 3 3 4 4 5 19 19
Wind_Direction
60 48 59 40 40 23 16 9 12 4 27 21 44 39 47 35 36 91 82 66 51 39 38 35 43 59 69 69 63 52 43 33 27 20 28 34 26 17 12 16 9 359 348
64 36 53 47 30 22 12 13 11 6 26 28 38 34 41 47 52 34 99 76 66 55 41 35 35 43 54 56 56 49 39 26 23 18 18 22 17 12 9 5 1 353 337
79 66 58 56 22 22 19 13 23 16 21 9 56 49 54 25 35 53 37 89 75 70 61 47 41 41 38 38 38 42 40 24 21 19 18 16 18 10 2 1 358 345 334
74 82 62 66 23 24 39 7 32 14 18 17 15 12 49 57 24 46 47 52 28 99 74 67 59 49 41 37 33 33 39 27 17 16 14 14 16 13 3 356 355 359 11
95 65 76 73 18 358 51 28 13 38 37 358 299 94 44 45 32 31 40 56 25 15 100 94 84 68 57 46 37 30 28 21 11 5 6 5 11 7 0 355 358 9 16
118 38 35 89 53 14 43 23 23 340 88 349 313 115 116 74 54 45 2 54 57 31 22 137 121 81 69 59 42 30 23 16 8 4 359 359 12 9 1 356 355 5 13
150 223 257 295 117 84 111 51 23 359 15 350 28 355 208 168 168 76 28 13 24 36 42 356 64 55 105 67 53 32 18 11 7 4 0 356 13 10 5 359 358 355 1
151 271 66 31 68 36 46 60 60 356 4 54 48 249 50 337 9 160 128 298 5 343 23 3 356 60 11 70 69 36 16 7 5 4 359 358 19 8 4 5 0 0 356
154 177 67 75 72 88 62 105 89 65 8 347 76 129 32 340 337 261 204 196 235 339 59 344 358 71 19 77 66 37 16 4 3 4 358 357 15 4 3 3 3 3 3
170 158 159 156 79 116 9 182 115 94 93 6 5 42 119 151 84 342 324 275 339 60 345 18 90 65 30 55 75 29 11 359 359 2 1 354 1 8 2 356 360 360 355
172 164 164 148 212 171 175 108 28 273 34 128 82 27 348 333 295 134 289 331 354 342 349 58 126 98 64 9 357 16 1 355 352 353 353 353 354 359 356 358 358 359 357
167 159 173 199 194 195 186 207 203 228 253 53 21 334 136 91 354 43 358 328 309 316 317 43 127 158 163 251 286 12 356 341 327 346 346 342 348 348 348 347 349 352 352
161 179 176 183 201 168 155 209 242 51 78 122 21 345 34 1 91 73 52 336 2 304 318 24 71 55 37 12 26 358 348 341 319 332 337 339 342 343 340 340 344 346 348
166 150 165 173 178 173 206 213 152 202 160 140 239 307 37 333 65 51 77 6 331 334 331 339 27 38 6 341 352 345 334 327 323 323 330 336 336 336 335 335 338 341 345
138 142 166 182 180 178 181 146 177 201 186 194 171 176 172 252 111 5 335 342 156 317 311 323 3 355 344 340 339 345 344 346 336 331 314 325 334 333 329 330 332 335 339
139 150 167 176 161 159 156 158 215 160 95 244 124 40 7 46 39 288 253 271 277 193 256 309 322 322 347 350 348 348 341 337 339 340 334 331 332 335 331 326 327 328 332
161 168 167 161 152 150 151 167 116 107 123 106 116 117 102 97 72 341 293 280 289 276 273 304 336 336 333 325 324 341 352 341 341 347 343 330 340 342 335 330 326 325 325
158 159 149 142 135 130 121 114 125 102 102 98 89 71 67 59 28 21 44 8 5 324 339 325 327 309 312 345 345 353 0 6 354 358 354 352 2 356 349 341 336 334 333
149 141 146 149 142 146 140 127 128 123 109 97 80 79 69 59 51 45 31 29 23 25 332 324 351 343 348 6 358 355 357 351 355 343 344 8 5 350 340 328 319 316 319
144 155 155 142 140 139 131 133 122 118 109 97 91 82 72 75 71 50 45 37 35 21 21 62 18 354 345 323 337 337 343 349 337 335 3 359 344 335 332 330 333 329 321
152 150 138 140 145 144 130 130 120 118 125 126 116 107 97 102 95 78 78 41 39 31 11 16 356 320 308 350 357 348 338 324 326 319 347 340 331 322 325 326 333 335 326
147 142 147 151 153 122 134 121 140 142 139 135 140 141 138 128 135 123 116 106 121 84 29 6 339 326 316 348 332 333 337 344 339 2 339 323 319 317 313 326 320 327 322
138 151 157 158 152 137 151 148 142 140 142 137 129 128 144 124 84 50 25 36 27 215 204 180 273 311 319 331 329 321 329 305 288 296 317 308 324 319 319 316 321 324 328
153 157 162 158 144 155 158 156 157 140 130 137 138 129 127 117 103 75 16 22 10 347 135 170 225 255 252 283 248 236 274 272 279 292 315 286 298 293 315 310 310 313 322
150 158 156 156 154 155 163 163 158 149 150 152 152 151 141 131 124 95 24 359 352 330 19 341 314 298 291 302 315 320 314 324 313 310 317 260 321 319 290 284 294 346 335
157 152 156 167 172 166 175 171 175 160 167 172 171 165 169 147 158 182 124 330 306 272 337 313 314 309 300 292 292 275 260 275 282 331 282 0 307 335 321 310 336 333 313